Location: ??????????
(54.8537°N, 38.8755°E)
Time: 04:24:30
(UTC+00:00)

Tiros 1 despin weight - Pass Details

Date: 19 September 2024
Orbit: 573 x 615 km, 48.2° (Epoch: 06 October)

Event Time Altitude Azimuth Distance (km) Brightness Sun altitude
Rises 02:46:08 0° 263° (W) 2,882 - -3.5°
Exits shadow 02:47:13 - 260° (W) 2,480 ? -3.4°
Reaches altitude 10° 02:48:36 10° 254° (WSW) 1,980 ? -3.2°
Maximum altitude 02:52:39 32° 191° (SSW) 1,056 ? -2.6°
Drops below altitude 10° 02:56:43 10° 128° (SE) 1,979 ? -2.0°
Sets 02:59:11 0° 119° (ESE) 2,881 ? -1.7°
